Location: Ottawa
(45.4170°N, 75.7000°W)
Time: 23:00:52
(UTC-04:00)

ISS - Pass Details

Date: 22 May 2021
Orbit: 417 x 422 km, 51.6° (Epoch: 13 June)

Event Time Altitude Azimuth Distance (km) Brightness Sun altitude
Rises 21:32:45 0° 280° (W) 2,363 1.1 -9.0°
Reaches altitude 10° 21:35:02 10° 292° (WNW) 1,500 0.4 -9.3°
Maximum altitude 21:38:00 28° 354° (N) 822 -1.7 -9.7°
Drops below altitude 10° 21:40:58 10° 56° (NE) 1,504 -1.1 -10.1°
Sets 21:43:16 0° 68° (ENE) 2,370 -0.2 -10.4°
